Regional Weather Roundup
Issued by NWS

Home | Current Version | Previous Version | Text Only | Print | Product List | Glossary On
Versions: 1 2 3 4 5 6 7 8 9 10 11 12 13 14 15 16 17 18 19 20 21 22 23 24 25 26 27 28 29 30 31 32 33 34 35 36 37 38 39 40 41 42 43 44 45 46 47 48 49 50
000
ASUS44 KFWD 310415
RWRTX
NORTH TEXAS HOURLY WEATHER ROUNDUP
NATIONAL WEATHER SERVICE FORT WORTH TX
1100 PM CDT SAT JUL 30 2016

NOTE: "FAIR" INDICATES FEW OR NO CLOUDS BELOW 12,000 FEET WITH NO
SIGNIFICANT WEATHER AND/OR OBSTRUCTIONS TO VISIBILITY.

TXZ118-119-310500-
DALLAS/FORT WORTH METROPLEX

CITY           SKY/WX    TMP DP  RH WIND       PRES   REMARKS
DFW AIRPORT    PTCLDY    90  67  46 S13       29.93S HX  93
DALLAS LOVE    PTCLDY    90  68  48 S14       29.94R HX  94
FTW MEACHAM    CLEAR     89  65  44 SE10      29.94R HX  91
DAL-EXECUTIVE  CLEAR     86  68  54 S9        29.95R
FTW-ALLIANCE   PTCLDY    85  65  51 S7        29.93R
FTW-NAS-JRB    CLEAR     91  63  39 S12       29.94R HX  92
FTW-SPINKS     CLEAR     82  67  60 SE6       29.97R
ARLINGTON      CLEAR     86  68  54 SE9       29.95R
GRAND PRAIRIE  CLEAR     87  67  50 SE7       29.96R HX  90
ADDISON        CLEAR     89  69  51 S12G17    29.96S HX  93
MESQUITE       CLEAR     82  70  66 SE6       29.95S
LANCASTER      CLEAR     84  69  59 S5        29.96S
$$

TXZ091>094-102>105-117-120-121-131>134-310500-
NORTH CENTRAL TEXAS

CITY           SKY/WX    TMP DP  RH WIND       PRES   REMARKS
SHRMAN/DENISON CLEAR     87  69  54 S12       29.95S HX  91
GAINESVILLE    CLEAR     81  68  65 SE6       29.95S
BOWIE          CLEAR     82  68  61 SE3       29.94R
BRIDGEPORT     CLEAR     85  66  53 SE8       29.95R
DECATUR        CLEAR     85  62  45 SE6       29.95S
DENTON         CLEAR     83  68  60 S10       29.93R
MCKINNEY       CLEAR     84  71  65 S8        29.94S
GREENVILLE     CLEAR     81  68  65 SE3       29.96R
ROCKWALL       CLEAR     86  70  58 S8        29.94S HX  91
TERRELL        CLEAR     84  69  60 S6        29.96R
WAXAHACHIE     CLEAR     83  69  61 SE7       29.97S
CLEBURNE       CLEAR     84  68  58 SE8       29.98R
GRANBURY       CLEAR     89  64  42 SE8       29.96R HX  90
$$

TXZ083>090-098>101-113>116-127>130-139>142-154-155-310500-
WESTERN NORTH TEXAS

CITY           SKY/WX    TMP DP  RH WIND       PRES   REMARKS
WICHITA FALLS  CLEAR     82  65  56 S9        29.90R
WF-KICKAPOO    CLEAR     86  63  46 SE8       29.92S
VERNON         MOCLDY    86  58  38 SW3       29.92R
ABILENE        CLEAR     86  63  45 SE13      29.96R
ABILENE-DYESS  CLEAR     86  64  47 SE8       29.95R
CISCO          CLEAR     84  64  51 SE12      29.98R HAZE
BRECKENRIDGE   CLEAR     87  61  42 SE13      29.94R
GRAHAM         CLEAR     86  65  49 SE8       29.92R
MINERAL WELLS  CLEAR     83  67  58 SE8       29.93R
STEPHENVILLE   CLEAR     85  64  49 S7        29.99S
COMANCHE       CLEAR     84  65  52 S9        29.97R
BROWNWOOD      CLEAR     86  63  45 SE10      29.97R
COLEMAN        CLEAR     85  61  43 S10       29.97R
$$

TXZ143>147-156>162-174-175-310500-
CENTRAL TEXAS

CITY           SKY/WX    TMP DP  RH WIND       PRES   REMARKS
WACO           CLEAR     87  67  51 S10       29.95R HX  90
WACO-TSTC      CLEAR     82  68  61 SE5       29.95
WACO-MCGREGOR  CLEAR     83  68  60 S6        29.96R
HILLSBORO      CLEAR     84  68  58 SE6       29.97R
CORSICANA      CLEAR     85  71  63 S10       29.97R HX  90
MEXIA          CLEAR     82  72  70 CALM      29.97R
HEARNE         CLEAR     83  73  72 CALM      29.98R
CAMERON        CLEAR     85  72  63 S8        29.97R HX  91
TEMPLE         CLEAR     86  69  56 SE12      29.96R HX  90
KILLEEN        CLEAR     82  66  57 SE7       29.97R
KILLEEN-SKYLRK CLEAR     85  69  58 SE9       29.97R
FORT HOOD      CLEAR     84  67  55 S6        29.95R
GATESVILLE     CLEAR     84  66  54 CALM      29.99R
HAMILTON       CLEAR     83  65  55 S7        29.99S
LAMPASAS       CLEAR     82  69  65 SE3       29.98R
$$

TXZ095>097-106>112-122>126-135>138-148>153-164>167-310500-
EAST TEXAS

CITY           SKY/WX    TMP DP  RH WIND       PRES   REMARKS
PARIS          CLEAR     79  64  61 SE13      29.98R
SULPHUR SPRNGS CLEAR     85  68  57 S7        29.98R
MOUNT PLEASANT CLEAR     80  70  71 SE7       30.00R
GILMER         CLEAR     81  75  82 E6        29.99R
MINEOLA        CLEAR     86  70  58 E3        29.97S HX  90
TYLER          CLEAR     84  70  62 S6        29.97R
LONGVIEW       CLEAR     82  74  76 E7        29.97R
MARSHALL       CLEAR     76  69  79 CALM      30.02R
ATHENS         CLEAR     82  68  61 S5        29.96R
PALESTINE      CLEAR     83  71  68 CALM      29.98S
JACKSONVILLE   CLEAR     83  71  65 S6        30.01S
HENDERSON      CLEAR     81  72  75 CALM      29.99R
CENTER         CLEAR     80  78  95 CALM      30.00R
NACOGDOCHES    CLEAR    N/A N/A N/A S5        29.97S
LUFKIN         CLEAR     81  75  82 S5        29.99R
$$

SUPPLEMENTAL OBSERVATIONS (CENTRAL)

CITY           SKY/WX    TMP DP  RH WIND       PRES   REMARKS
DENISON DAM      N/A     86  68  54 S8          N/A
PAT MAYSE LAKE   N/A     75  73  94 E8          N/A
GREENVILLE       N/A     84  66  54 S3          N/A
CEDAR HILL       N/A     84  66  54 SE8         N/A
ATHENS           N/A     84  68  58 S6          N/A
LAKE LIMESTONE   N/A     82  72  69 S5          N/A
MCGREGOR         N/A     81  66  61 S5          N/A
TEMPLE           N/A     84  68  58 S12         N/A
$$

SUPPLEMENTAL OBSERVATIONS (WEST)

CITY           SKY/WX    TMP DP  RH WIND       PRES   REMARKS
MILLERS CREEK    N/A     88  66  48 SE12        N/A  HX  90
POSSUM KINGDOM   N/A     88  64  45 SE12G21     N/A
GRANBURY         N/A     88  64  45 SE8         N/A
COMANCHE         N/A     84  64  51 S9G17       N/A
HAMBY            N/A     84  61  45 SE8         N/A
IVIE RESERVOIR   N/A     88  64  45 S12         N/A
COLORADO BEND    N/A     84  64  51 SW7         N/A
$$

SUPPLEMENTAL OBSERVATIONS (EAST)

CITY           SKY/WX    TMP DP  RH WIND       PRES   REMARKS
CLARKSVILLE      N/A     75  70  83 E3          N/A
TEXARKANA        N/A     73  70  88 SE1         N/A
LINDEN           N/A     75  68  78 E3          N/A
GILMER           N/A     81  73  78 E3          N/A
HENDERSON        N/A     82  72  69 S1          N/A
LUFKIN           N/A     81  75  83 MISG        N/A
N SABINE NF      N/A     79  73  83 MISG        N/A
S SABINE NF      N/A     77  73  88 CALM        N/A
$$

SUPPLEMENTAL OBSERVATIONS ARE A COLLECTION OF AUTOMATED INSTRUMENTS
THAT ARE MAINTAINED BY A VARIETY OF FEDERAL AND STATE AGENCIES.
CERTAIN ELEMENTS...SUCH AS HUMIDITY VALUES AND SUSTAINED WIND
SPEEDS...MAY BE APPROXIMATED.




USA.gov is the U.S. government's official web portal to all federal, state and local government web resources and services.